Carnival Pride — H3VU — position and weather

sailwx.info

Track history (hours):
 
Tides and Currents Weather Stations Pressure Air Temp Water Temp Dewpoint Dewpoint Depression Visibility Wind Speed Wind Dir Waves Ship Positions

Carnival Pride

Operator: Carnival Cruise Lines

Last reported at 2015-Aug-03 10:00 UTC. Time now 2015-Aug-03 21:26 UTC.
Position N 35°54' W 075°12'.

Type: Ship. MMSI: 354215000.

Wind from 240 at 8 knots

Waves 0.5 meters (2 feet), 6 second period

Barometer 1015.0 mb
Air temperature 24.0 ° C
Visibility: greater than 5.4 NM
Dewpoint 21.0 ° C
Water temperature 30.0 ° C

Date/timePositionNaut miles runAvg speedWind from/ knotsBaromVisibWave heightAir tempDewpointWater temp
2015-Aug-03 10:00N 35°54' W 075°12'1417.3 240 / 81015.0 5.4 0.524.021.030.0
2015-Aug-03 09:11N 36°07' W 075°18'5720.1
2015-Aug-03 06:22N 36°55' W 075°56'1417.0
2015-Aug-03 05:31N 37°06' W 076°07'3015.1
2015-Aug-03 03:33N 37°36' W 076°04'2115.7
2015-Aug-03 02:15N 37°56' W 076°09'1519.7
2015-Aug-03 01:29N 38°10' W 076°14'3718.8
2015-Aug-02 23:30N 38°47' W 076°25'1616.7
2015-Aug-02 22:34N 39°02' W 076°23'1211.7
2015-Aug-02 21:33N 39°12' W 076°31'5 5.3
2015-Aug-02 20:32N 39°16' W 076°36'0 0.0
2015-Aug-02 19:33N 39°16' W 076°36'0 0.0
2015-Aug-02 18:31N 39°16' W 076°36'0 0.0
2015-Aug-02 17:31N 39°16' W 076°36'0 0.0
2015-Aug-02 16:33N 39°16' W 076°36'0 0.0
2015-Aug-02 15:31N 39°16' W 076°36'0 0.0
2015-Aug-02 14:31N 39°16' W 076°36'0 0.0
2015-Aug-02 13:33N 39°16' W 076°36'0 0.0
2015-Aug-02 12:33N 39°16' W 076°36'6 6.4
2015-Aug-02 11:33N 39°12' W 076°30'1211.5
2015-Aug-02 10:33N 39°02' W 076°23'1414.2
2015-Aug-02 09:34N 38°48' W 076°25'1717.3
2015-Aug-02 08:33N 38°30' W 076°24'1918.9
2015-Aug-02 07:33N 38°13' W 076°15'2019.1
2015-Aug-02 06:30N 37°53' W 076°09'3917.7
2015-Aug-02 04:17N 37°14' W 076°08'4816.0
2015-Aug-02 01:17N 36°34' W 075°35'12918.6
2015-Aug-01 18:22N 34°27' W 075°57'2521.0
2015-Aug-01 17:11N 34°08' W 076°17'  
2015-Jul-29 07:00N 22°48' W 071°36'46318.5 100 / 241019.010.8 8.026.023.026.0
2015-Jul-28 06:00N 30°18' W 073°36'35817.9 230 / 191019.010.8 6.026.023.026.0
2015-Jul-27 10:00N 36°06' W 075°18'6117.4 170 / 121018.0 5.4 1.025.019.030.0
2015-Jul-27 06:30N 36°57' W 075°59'3415.9
2015-Jul-27 04:21N 37°31' W 076°03'1417.6
2015-Jul-27 03:33N 37°43' W 076°11'1717.5
2015-Jul-27 02:33N 38°01' W 076°13'1818.0
2015-Jul-27 01:33N 38°18' W 076°18'1817.8
2015-Jul-27 00:33N 38°35' W 076°26'1918.4
2015-Jul-26 23:32N 38°54' W 076°24'1515.3
2015-Jul-26 22:34N 39°09' W 076°24'1010.3
2015-Jul-26 21:33N 39°15' W 076°35'1 1.2
2015-Jul-26 20:31N 39°16' W 076°36'0 0.0
2015-Jul-26 19:31N 39°16' W 076°36'0 0.0
2015-Jul-26 18:31N 39°16' W 076°36'0 0.0
2015-Jul-26 17:31N 39°16' W 076°36'0 0.0
2015-Jul-26 16:31N 39°16' W 076°36'0 0.0
2015-Jul-26 15:31N 39°16' W 076°36'0 0.0
2015-Jul-26 14:33N 39°16' W 076°36'0 0.0
2015-Jul-26 13:33N 39°16' W 076°36'0 0.0
2015-Jul-26 12:33N 39°16' W 076°36'6 6.3
2015-Jul-26 11:33N 39°12' W 076°30'1212.4
2015-Jul-26 10:33N 39°01' W 076°23'1615.9
2015-Jul-26 09:33N 38°45' W 076°26'1818.1
2015-Jul-26 08:33N 38°27' W 076°22'2019.5
2015-Jul-26 07:33N 38°09' W 076°14'38517.9
2015-Jul-25 10:00N 32°00' W 078°30'27421.9 040 / 251014.0 5.4 1.526.022.030.0
2015-Jul-24 21:31N 27°31' W 079°29'2723.4
2015-Jul-24 20:21N 27°06' W 079°18'1822.1
2015-Jul-24 19:33N 26°49' W 079°11'29 3.2
2015-Jul-24 10:33N 26°31' W 078°47'  
Track history (hours):
 
Tides and Currents Weather Stations Pressure Air Temp Water Temp Dewpoint Dewpoint Depression Visibility Wind Speed Wind Dir Waves Ship Positions

Carnival Pride

Operator: Carnival Cruise Lines

Last reported at 2015-Aug-03 10:00 UTC. Time now 2015-Aug-03 21:26 UTC.
Position N 35°54' W 075°12'.

Type: Ship. MMSI: 354215000.

Wind from 240 at 8 knots

Waves 0.5 meters (2 feet), 6 second period

Barometer 1015.0 mb
Air temperature 24.0 ° C
Visibility: greater than 5.4 NM
Dewpoint 21.0 ° C
Water temperature 30.0 ° C

Date/timePositionNaut miles runAvg speedWind from/ knotsBaromVisibWave heightAir tempDewpointWater temp
2015-Aug-03 10:00N 35°54' W 075°12'1417.3 240 / 81015.0 5.4 0.524.021.030.0
2015-Aug-03 09:11N 36°07' W 075°18'5720.1
2015-Aug-03 06:22N 36°55' W 075°56'1417.0
2015-Aug-03 05:31N 37°06' W 076°07'3015.1
2015-Aug-03 03:33N 37°36' W 076°04'2115.7
2015-Aug-03 02:15N 37°56' W 076°09'1519.7
2015-Aug-03 01:29N 38°10' W 076°14'3718.8
2015-Aug-02 23:30N 38°47' W 076°25'1616.7
2015-Aug-02 22:34N 39°02' W 076°23'1211.7
2015-Aug-02 21:33N 39°12' W 076°31'5 5.3
2015-Aug-02 20:32N 39°16' W 076°36'0 0.0
2015-Aug-02 19:33N 39°16' W 076°36'0 0.0
2015-Aug-02 18:31N 39°16' W 076°36'0 0.0
2015-Aug-02 17:31N 39°16' W 076°36'0 0.0
2015-Aug-02 16:33N 39°16' W 076°36'0 0.0
2015-Aug-02 15:31N 39°16' W 076°36'0 0.0
2015-Aug-02 14:31N 39°16' W 076°36'0 0.0
2015-Aug-02 13:33N 39°16' W 076°36'0 0.0
2015-Aug-02 12:33N 39°16' W 076°36'6 6.4
2015-Aug-02 11:33N 39°12' W 076°30'1211.5
2015-Aug-02 10:33N 39°02' W 076°23'1414.2
2015-Aug-02 09:34N 38°48' W 076°25'1717.3
2015-Aug-02 08:33N 38°30' W 076°24'1918.9
2015-Aug-02 07:33N 38°13' W 076°15'2019.1
2015-Aug-02 06:30N 37°53' W 076°09'3917.7
2015-Aug-02 04:17N 37°14' W 076°08'4816.0
2015-Aug-02 01:17N 36°34' W 075°35'12918.6
2015-Aug-01 18:22N 34°27' W 075°57'2521.0
2015-Aug-01 17:11N 34°08' W 076°17'  
2015-Jul-29 07:00N 22°48' W 071°36'46318.5 100 / 241019.010.8 8.026.023.026.0
2015-Jul-28 06:00N 30°18' W 073°36'35817.9 230 / 191019.010.8 6.026.023.026.0
2015-Jul-27 10:00N 36°06' W 075°18'6117.4 170 / 121018.0 5.4 1.025.019.030.0
2015-Jul-27 06:30N 36°57' W 075°59'3415.9
2015-Jul-27 04:21N 37°31' W 076°03'1417.6
2015-Jul-27 03:33N 37°43' W 076°11'1717.5
2015-Jul-27 02:33N 38°01' W 076°13'1818.0
2015-Jul-27 01:33N 38°18' W 076°18'1817.8
2015-Jul-27 00:33N 38°35' W 076°26'1918.4
2015-Jul-26 23:32N 38°54' W 076°24'1515.3
2015-Jul-26 22:34N 39°09' W 076°24'1010.3
2015-Jul-26 21:33N 39°15' W 076°35'1 1.2
2015-Jul-26 20:31N 39°16' W 076°36'0 0.0
2015-Jul-26 19:31N 39°16' W 076°36'0 0.0
2015-Jul-26 18:31N 39°16' W 076°36'0 0.0
2015-Jul-26 17:31N 39°16' W 076°36'0 0.0
2015-Jul-26 16:31N 39°16' W 076°36'0 0.0
2015-Jul-26 15:31N 39°16' W 076°36'0 0.0
2015-Jul-26 14:33N 39°16' W 076°36'0 0.0
2015-Jul-26 13:33N 39°16' W 076°36'0 0.0
2015-Jul-26 12:33N 39°16' W 076°36'6 6.3
2015-Jul-26 11:33N 39°12' W 076°30'1212.4
2015-Jul-26 10:33N 39°01' W 076°23'1615.9
2015-Jul-26 09:33N 38°45' W 076°26'1818.1
2015-Jul-26 08:33N 38°27' W 076°22'2019.5
2015-Jul-26 07:33N 38°09' W 076°14'38517.9
2015-Jul-25 10:00N 32°00' W 078°30'27421.9 040 / 251014.0 5.4 1.526.022.030.0
2015-Jul-24 21:31N 27°31' W 079°29'2723.4
2015-Jul-24 20:21N 27°06' W 079°18'1822.1
2015-Jul-24 19:33N 26°49' W 079°11'29 3.2
2015-Jul-24 10:33N 26°31' W 078°47'  

Dump ship's entire track history